TimeEST,TemperatureF,Dew PointF,Humidity,Sea Level PressureIn,VisibilityMPH,Wind Direction,Wind SpeedMPH,Gust SpeedMPH,PrecipitationIn,Events,Conditions,WindDirDegrees,DateUTC
12:30 AM,28.0,27.0,96,30.01,1.2,NE,9.2,-,0.01,Rain,Light Freezing Rain,50,2012-12-17 05:30:00
12:41 AM,28.4,26.6,93,30.01,2.5,NE,8.1,-,N/A,Rain,Light Freezing Rain,40,2012-12-17 05:41:00
12:54 AM,28.0,27.0,96,30.05,1.8,NE,6.9,-,0.01,Rain,Light Freezing Rain,50,2012-12-17 05:54:00
1:54 AM,28.0,26.1,92,30.04,0.8,NE,10.4,17.3,0.01,,Mist,40,2012-12-17 06:54:00
2:08 AM,28.0,27.0,96,30.00,1.0,NE,9.2,-,N/A,,Mist,50,2012-12-17 07:08:00
2:18 AM,28.0,26.1,92,29.99,0.8,NE,9.2,-,0.00,Rain,Light Freezing Rain,50,2012-12-17 07:18:00
2:54 AM,28.0,27.0,96,30.03,1.0,NE,10.4,20.7,0.00,Rain,Light Freezing Rain,40,2012-12-17 07:54:00
3:17 AM,28.0,26.1,92,29.98,2.0,NE,11.5,19.6,0.01,Rain,Light Freezing Rain,40,2012-12-17 08:17:00
3:54 AM,28.0,27.0,96,30.01,1.0,NE,9.2,-,0.02,Rain,Light Freezing Rain,50,2012-12-17 08:54:00
4:40 AM,28.0,26.1,92,29.94,0.8,NE,9.2,-,0.01,Rain,Light Freezing Rain,40,2012-12-17 09:40:00
4:54 AM,28.0,26.1,92,29.99,0.8,NE,12.7,-,0.01,Rain,Light Freezing Rain,40,2012-12-17 09:54:00
5:09 AM,28.0,27.0,96,29.94,0.5,NE,10.4,20.7,0.01,Fog-Rain,Light Freezing Rain,50,2012-12-17 10:09:00
5:26 AM,28.0,27.0,96,29.95,1.0,NE,11.5,18.4,0.03,Rain,Light Freezing Rain,40,2012-12-17 10:26:00
5:43 AM,28.0,26.1,92,29.95,2.5,NE,12.7,19.6,0.04,Rain,Light Freezing Rain,40,2012-12-17 10:43:00
5:54 AM,28.0,27.0,96,30.00,2.5,NNE,12.7,-,0.05,Rain,Light Freezing Rain,30,2012-12-17 10:54:00
6:03 AM,28.0,26.1,92,29.96,3.0,NNE,11.5,19.6,0.00,Rain,Light Freezing Rain,30,2012-12-17 11:03:00
6:14 AM,28.0,27.0,96,29.96,4.0,NNE,9.2,-,0.02,Rain,Light Freezing Rain,30,2012-12-17 11:14:00
6:54 AM,28.4,26.6,93,29.95,4.0,NE,11.5,20.7,N/A,Rain,Light Freezing Rain,50,2012-12-17 11:54:00
7:18 AM,28.9,27.0,92,29.94,4.0,NE,11.5,18.4,0.03,Rain,Light Freezing Rain,40,2012-12-17 12:18:00
7:54 AM,28.9,27.0,92,29.98,2.0,NE,11.5,-,0.04,Rain,Light Freezing Rain,50,2012-12-17 12:54:00
8:03 AM,28.9,27.0,92,29.94,1.2,NE,12.7,19.6,0.00,Rain,Light Freezing Rain,40,2012-12-17 13:03:00
8:18 AM,28.9,27.0,92,29.95,0.5,NE,9.2,-,0.00,Fog-Rain,Light Freezing Rain,40,2012-12-17 13:18:00
8:39 AM,28.9,28.0,96,29.94,0.2,NE,9.2,-,0.00,Fog-Rain,Light Freezing Rain,40,2012-12-17 13:39:00
8:54 AM,28.9,28.0,96,29.99,0.2,NE,9.2,-,0.01,Fog-Rain,Light Freezing Rain,40,2012-12-17 13:54:00
9:11 AM,28.9,28.0,96,29.95,0.2,NNE,9.2,-,0.00,Fog,Light Freezing Fog,30,2012-12-17 14:11:00
9:54 AM,30.0,28.0,92,29.99,0.2,NNE,11.5,-,0.00,Fog,Light Freezing Fog,30,2012-12-17 14:54:00
10:54 AM,30.0,28.9,96,29.96,0.2,NE,11.5,-,N/A,Fog,Light Freezing Fog,40,2012-12-17 15:54:00
11:54 AM,30.0,28.9,96,29.96,0.2,NE,8.1,-,N/A,Fog,Light Freezing Fog,40,2012-12-17 16:54:00
12:54 PM,30.0,28.9,96,29.94,0.2,NNE,9.2,-,N/A,Fog,Light Freezing Fog,30,2012-12-17 17:54:00
1:12 PM,30.9,30.0,96,29.90,0.2,NE,9.2,-,N/A,Fog,Light Freezing Fog,40,2012-12-17 18:12:00
1:54 PM,30.9,30.0,96,29.93,0.2,NE,10.4,-,N/A,Fog,Light Freezing Fog,40,2012-12-17 18:54:00
2:49 PM,32.0,30.2,93,29.89,0.2,NE,8.1,-,N/A,Fog,Fog,40,2012-12-17 19:49:00
2:54 PM,32.0,30.9,96,29.93,0.2,NE,8.1,-,N/A,Fog,Fog,40,2012-12-17 19:54:00
3:54 PM,32.0,30.9,96,29.90,0.2,NE,8.1,-,N/A,Fog,Fog,40,2012-12-17 20:54:00
4:54 PM,32.0,30.9,96,29.88,0.2,NE,8.1,-,N/A,Fog,Fog,40,2012-12-17 21:54:00
7:54 PM,33.1,30.9,92,29.88,0.2,NNE,10.4,-,0.01,Fog,Fog,30,2012-12-18 00:54:00
8:13 PM,33.1,30.9,92,29.85,0.2,NNE,11.5,-,0.00,Fog-Rain,Light Freezing Rain,20,2012-12-18 01:13:00
8:54 PM,33.1,32.0,96,29.86,0.2,NE,11.5,-,0.01,Fog-Rain,Light Freezing Rain,40,2012-12-18 01:54:00
9:33 PM,33.1,30.9,92,29.81,0.5,NNE,11.5,19.6,0.00,Fog-Rain,Light Freezing Rain,30,2012-12-18 02:33:00
9:54 PM,33.1,32.0,96,29.85,0.8,NNE,11.5,-,0.01,Rain,Light Freezing Rain,30,2012-12-18 02:54:00
10:22 PM,33.1,32.0,96,29.79,0.8,NNE,12.7,-,0.01,Rain,Light Rain,20,2012-12-18 03:22:00
10:36 PM,33.1,32.0,96,29.80,1.2,NNE,11.5,19.6,0.01,Rain,Light Rain,20,2012-12-18 03:36:00
10:54 PM,33.1,32.0,96,29.83,1.2,NNE,11.5,-,0.02,Snow,Light Snow,30,2012-12-18 03:54:00
11:06 PM,33.1,32.0,96,29.78,0.5,NNE,12.7,-,0.00,Fog-Rain,Light Rain,30,2012-12-18 04:06:00
11:26 PM,33.1,32.0,96,29.77,1.2,NNE,12.7,21.9,0.01,Rain,Light Rain,30,2012-12-18 04:26:00
11:54 PM,33.1,32.0,96,29.79,1.0,NNE,12.7,18.4,0.02,Rain,Light Rain,30,2012-12-18 04:54:00